LRSM Weather Reports


time (UTC)temp
C
wind
direction
speed
KPH
gust
KPH
rain 1hr
cm
rain 24hr
cm
rain mn
cm
humidity
%
barometer
mb
20260504231832 11 210 11.3 0.0 0.00 0.00 0.00 54 1016.0
20260504230332 11 210 11.3 0.0 0.00 0.00 0.00 54 1016.0
20260504224832 12 210 11.3 0.0 0.00 0.00 0.00 54 1016.0
20260504223332 12 210 11.3 0.0 0.00 0.00 0.00 54 1016.0
20260504221855 12 200 12.9 0.0 0.00 0.00 0.00 54 1016.0
20260504220332 12 200 12.9 0.0 0.00 0.00 0.00 54 1016.0
20260504214832 12 210 11.3 0.0 0.00 0.00 0.00 54 1016.0
20260504213348 12 210 11.3 0.0 0.00 0.00 0.00 54 1016.0
20260504211832 11 210 11.3 0.0 0.00 0.00 0.00 62 1016.0
20260504210332 11 210 11.3 0.0 0.00 0.00 0.00 62 1016.0
20260504204832 12 220 9.7 0.0 0.00 0.00 0.00 51 1016.0
20260504203333 12 220 9.7 0.0 0.00 0.00 0.00 51 1016.0
20260504201831 13 200 9.7 0.0 0.00 0.00 0.00 48 1016.0
20260504200333 13 200 9.7 0.0 0.00 0.00 0.00 48 1016.0
20260504194832 15 230 1.6 0.0 0.00 0.00 0.00 45 1016.0
20260504193333 15 230 1.6 0.0 0.00 0.00 0.00 45 1016.0
20260504191832 16 220 4.8 0.0 0.00 0.00 0.00 42 1016.0
20260504190332 16 220 4.8 0.0 0.00 0.00 0.00 42 1016.0
20260504184832 18 240 3.2 0.0 0.00 0.00 0.00 35 1015.0
20260504183342 18 240 3.2 0.0 0.00 0.00 0.00 35 1015.0
20260504181832 20 280 4.8 0.0 0.00 0.00 0.00 33 1015.0
20260504180332 20 280 4.8 0.0 0.00 0.00 0.00 33 1015.0
20260504174832 21 270 8.0 0.0 0.00 0.00 0.00 31 1015.0
20260504173332 21 270 8.0 0.0 0.00 0.00 0.00 31 1015.0
20260504171832 23 270 8.0 0.0 0.00 0.00 0.00 25 1015.0
20260504170332 23 270 8.0 0.0 0.00 0.00 0.00 25 1015.0
20260504160333 26 310 9.7 0.0 0.00 0.00 0.00 18 1015.0
20260504150332 26 260 8.0 0.0 0.00 0.00 0.00 18 1015.0
20260504140333 26 340 11.3 0.0 0.00 0.00 0.00 18 1016.0
20260504130332 25 4.8 0.0 0.00 0.00 0.00 21 1017.0
20260504110333 23 30 9.7 0.0 0.00 0.00 0.00 24 1018.0
20260504100332 22 290 8.0 0.0 0.00 0.00 0.00 27 1019.0
20260504081832 18 330 8.0 0.0 0.00 0.00 0.00 35 1020.0
20260504080332 18 330 8.0 0.0 0.00 0.00 0.00 35 1020.0
20260504070333 17 1.6 0.0 0.00 0.00 0.00 45 1020.0
20260504050342 10 1.6 0.0 0.00 0.00 0.00 62 1020.0
20260504044832 7 190 8.0 0.0 0.00 0.00 0.00 71 1019.0
20260504043332 7 190 8.0 0.0 0.00 0.00 0.00 71 1019.0
20260504041832 6 210 8.0 0.0 0.00 0.00 0.00 76 1019.0
20260504040332 6 210 8.0 0.0 0.00 0.00 0.00 76 1019.0
20260504034833 5 210 4.8 0.0 0.00 0.00 0.00 76 1019.0
20260504033332 5 210 4.8 0.0 0.00 0.00 0.00 76 1019.0
20260504031832 3 210 4.8 0.0 0.00 0.00 0.00 81 1019.0
20260504030452 3 210 4.8 0.0 0.00 0.00 0.00 81 1019.0
20260504024833 3 180 4.8 0.0 0.00 0.00 0.00 81 1019.0
20260504023332 3 180 4.8 0.0 0.00 0.00 0.00 81 1019.0
20260504021832 5 170 4.8 0.0 0.00 0.00 0.00 76 1019.0
20260504020332 5 170 4.8 0.0 0.00 0.00 0.00 76 1019.0
20260504014832 6 0 0.0 0.0 0.00 0.00 0.00 71 1019.0
20260504013337 6 0 0.0 0.0 0.00 0.00 0.00 71 1019.0
20260504011951 7 210 9.7 0.0 0.00 0.00 0.00 66 1019.0
20260504010332 7 210 9.7 0.0 0.00 0.00 0.00 66 1019.0
20260504004951 7 210 9.7 0.0 0.00 0.00 0.00 66 1019.0
20260504003332 7 210 9.7 0.0 0.00 0.00 0.00 66 1019.0
20260504001832 7 200 8.0 0.0 0.00 0.00 0.00 71 1019.0
20260504000333 7 200 8.0 0.0 0.00 0.00 0.00 71 1019.0
20260503234912 7 210 9.7 0.0 0.00 0.00 0.00 66 1019.0
20260503233332 7 210 9.7 0.0 0.00 0.00 0.00 66 1019.0